Tracking 20712 objects as of 29-May-2020
HD Live streaming from Space Station
objects crossing your sky now

SL-8 DEB

Track SL-8 DEB now!
10-day predictions


NORAD ID: 22025
Int'l Code: 1991-009CJ
Perigee: 1,437.3 km
Apogee: 1,663.3 km
Inclination: 73.9 °
Period: 116.9 minutes
Semi major axis: 7921 km
RCS: 0.0299 m2 (small)
Launch date: February 12, 1991
Source: Commonwealth of Independent States (former USSR) (CIS)
Launch site: PLESETSK MISSILE AND SPACE COMPLEX (PKMTR)

Note: This is SATELLITE DEBRIS
aabbcc
Your satellite tracking list
Your tracking list is empty




NASA's NSSDC Master Catalog

Two Line Element Set (TLE):
1 22025U 91009CJ  20150.51543275 +.00000023 +00000-0 +31560-3 0  9993
2 22025 073.9422 074.8675 0142650 314.9154 221.1189 12.31416468313302
Source of the keplerian elements: AFSPC